This demonstration page uses our WeatherBlox Daily Observations layout. Learn more.

Left ArrowRight Arrow

Hourly Observations for July 11, 2019

Temp ( °F °C ) Dew Point ( °F °C ) Humidity (%) Winds ( mph kmh ) Pressure ( in mb ) Visibility ( mi km ) Precip ( " mm )
12:53 am 00:53 Clear 74 23.3 69 20.6 85 85 N N/A 29.91 1013 10 16 N/A
1:53 am 01:53 Clear 74 23.3 70 21.1 88 88 N N/A 29.89 1012 10 16 N/A
2:53 am 02:53 Clear 75 23.9 69 20.6 82 82 N N/A 29.88 1012 10 16 N/A
3:53 am 03:53 Clear 72 22.2 69 20.6 91 91 N N/A 29.88 1012 10 16 N/A
4:53 am 04:53 Mostly Clear 72 22.2 69 20.6 91 91 S 3 6 29.87 1012 10 16 N/A
5:53 am 05:53 Mostly Cloudy with Light Rain 73 22.8 70 21.1 90 90 N N/A 29.87 1012 10 16 N/A
6:53 am 06:53 Sunny 72 22.2 70 21.1 94 94 N N/A 29.89 1012 10 16 N/A
7:53 am 07:53 Sunny 74 23.3 71 21.7 91 91 N N/A 29.89 1012 10 16 N/A
8:53 am 08:53 Sunny 79 26.1 70 21.1 74 74 VRB 3 6 29.89 1012 10 16 N/A
9:53 am 09:53 Sunny 81 27.2 70 21.1 69 69 NW 5 7 29.88 1012 10 16 N/A
10:53 am 10:53 Sunny 82 27.8 71 21.7 69 69 VRB 6 9 29.88 1012 10 16 N/A
11:53 am 11:53 Sunny 84 28.9 71 21.7 65 65 SW 6 9 29.88 1012 10 16 N/A
12:53 pm 12:53 Mostly Cloudy 85 29.4 71 21.7 63 63 VRB 6 9 29.87 1012 10 16 N/A
1:53 pm 13:53 Mostly Cloudy 87 30.6 71 21.7 59 59 WSW 10 17 29.86 1011 10 16 N/A
2:53 pm 14:53 Mostly Sunny 89 31.7 70 21.1 53 53 WNW 13 20 29.84 1010 10 16 N/A
3:53 pm 15:53 Mostly Sunny 87 30.6 68 20 53 53 W 9 15 29.83 1010 10 16 N/A
4:53 pm 16:53 Partly Cloudy 89 31.7 67 19.4 48 48 WNW 13 20 29.82 1010 10 16 N/A
5:53 pm 17:53 Partly Cloudy 88 31.1 64 17.8 45 45 W 13 20 29.81 1010 10 16 N/A
6:53 pm 18:53 Partly Cloudy 87 30.6 65 18.3 48 48 NW 12 19 29.83 1010 10 16 N/A
7:53 pm 19:53 Sunny 85 29.4 63 17.2 48 48 WNW 9 15 29.84 1011 10 16 N/A
8:53 pm 20:53 Sunny 80 26.7 65 18.3 60 60 NNW 7 11 29.86 1011 10 16 N/A
9:53 pm 21:53 Clear 77 25 65 18.3 66 66 NNW 5 7 29.87 1012 10 16 N/A
10:53 pm 22:53 Clear 76 24.4 66 18.9 72 72 NNW 6 9 29.87 1012 10 16 N/A
11:53 pm 23:53 Clear 74 23.3 65 18.3 74 74 NNW 6 9 29.87 1012 10 16 N/A

Powered by AerisWeather